Regional Weather Roundup
Issued by NWS

Home | Current Version | Previous Version | Text Only | Print | Product List | Glossary On
Versions: 1 2 3 4 5 6 7 8 9 10 11 12 13 14 15 16 17 18 19 20 21 22 23 24 25 26 27 28
000
ASUS44 KBMX 200110
RWRAL

ALABAMA REGIONAL WEATHER ROUNDUP
NATIONAL WEATHER SERVICE BIRMINGHAM AL
800 PM CDT SAT APR 19 2014

NOTE: "FAIR" INDICATES FEW OR NO CLOUDS BELOW 12,000 FEET
WITH NO SIGNIFICANT WEATHER AND/OR OBSTRUCTIONS TO VISIBILITY.

THE REMARK "TC" DENOTES TEMPERATURE IN DEGREES CELSIUS.

ALZ001>011-014-016>018-020-200200-
NORTH ALABAMA

CITY           SKY/WX    TMP DP  RH WIND       PRES   REMARKS
MUSCLE SHOALS  CLEAR     64  43  46 E3        30.14R
HUNTSVILLE     PTCLDY    64  41  42 SE6       30.14R
DECATUR        CLEAR     66  42  41 E5        30.14R
HALEYVILLE     FAIR      60  45  57 CALM      30.17R
GADSDEN        NOT AVBL
$$

ALZ012-013-022-023-030>036-040>044-200200-
WEST CENTRAL ALABAMA

CITY           SKY/WX    TMP DP  RH WIND       PRES   REMARKS
TUSCALOOSA     CLEAR     67  46  47 NE6       30.11R
$$

ALZ015-024>027-033>036-040>044-200200-
CENTRAL ALABAMA

CITY           SKY/WX    TMP DP  RH WIND       PRES   REMARKS
BIRMINGHAM     CLEAR     66  39  37 NE7       30.15R
MONTGOMERY     CLOUDY    68  55  63 NE7       30.11R
SHELBY CO ARPT CLOUDY    68  43  40 VRB5      30.13R
MAXWELL AFB    CLOUDY    72  61  69 NE8       30.11R
GREENVILLE     CLOUDY    67  55  65 NE8       30.09R
$$

ALZ019-021-028-029-037-038-045>048-200200-
EAST CENTRAL ALABAMA

CITY           SKY/WX    TMP DP  RH WIND       PRES   REMARKS
ANNISTON       CLOUDY    65  45  48 N6        30.13S
ALEXANDER CITY MOCLDY    71  57  61 E3        30.14R
AUBURN         CLOUDY    57  52  82 NE14G22   30.14R
$$

ALZ051>064-200200-
SOUTHWEST ALABAMA

CITY           SKY/WX    TMP DP  RH WIND       PRES   REMARKS
MOBILE         CLEAR     68  51  54 N3        30.09R
BROOKLEY FIELD CLEAR     71  48  43 N7        30.08R
EVERGREEN      MOCLDY    69  53  56 NE6       30.10R
$$

ALZ049-050-065>069-200200-
SOUTHEAST ALABAMA

CITY           SKY/WX    TMP DP  RH WIND       PRES   REMARKS
DOTHAN         CLOUDY    61  55  81 VRB7      30.10S
OZARK          CLOUDY    63  56  76 N12       30.08R
TROY           CLOUDY    63  56  78 N10       30.11R
EUFAULA        CLOUDY    61  53  75 NE9G16    30.08R
$$



USA.gov is the U.S. government's official web portal to all federal, state and local government web resources and services.